Location: Balsareny
(41.8670°N, 1.8830°E)
Time: 20:12:00
(UTC+01:00)

ISS - Pass Details

Date: 02 December 2021
Orbit: 413 x 422 km, 51.6° (Epoch: 25 January)

Event Time Altitude Azimuth Distance (km) Brightness Sun altitude
Rises 19:22:05 0° 308° (NW) 2,383 0.7 -21.8°
Reaches altitude 10° 19:24:19 10° 318° (NW) 1,514 -0.6 -22.2°
Enters shadow 19:25:51 22° 335° (NNW) 992 -1.8 -22.4°
